HULIANWANG DIGUI-35

Satellite information

Favourite Embed

Satellite Type and Status

PAYLOADIN ORBIT

Key statistics

Satellite HULIANWANG DIGUI-35 at a glance.

Uptime

85

Days in orbit

Revolutions

≈ 13.2

Per day

Orbit

LEO

Low Earth Orbit

Inclination

86.5

Latest

Satellite identification and parameters

Extended collection of information and parameters for HULIANWANG DIGUI-35.

Object identification

Identified? True

Debris? False

Object name: HULIANWANG DIGUI-35

International designator: 2025-159A

Object number (NORAD): 64956

Object ID (CCSDS): 64956

Country: PEOPLES REPUBLIC OF CHINA (PRC)

Current information (Y/N): Y

RCS size: LARGE

Orbital parameters

Period: 108.727 minutes

Inclination: 86.5024 deg

SMA: 7546.008 km

Apoapsis: 1168.959 km

Periapsis: 1166.788 km

RAAN: 3.571 deg

Eccentricy: 0.00014385

Argument of periapsis: 98.1034 deg

Mean anomaly: 262.0263 deg

Mean motion: 13.24423388 rev/day

Mean motion (dot): 0.00000084 rev/day2

B* drag term: 0.0001611876 1/REarth

Two-line elements (TLE)

Creation date: Oct. 20, 2025, 2:10 a.m.

Reference frame: TEME

Reference center: EARTH

Epoch: Oct. 19, 2025, 10:28 p.m. UTC

TLE line 0: 0 HULIANWANG DIGUI-35

TLE line 1: 1 64956U 25159A 25292.93670820 .00000084 00000-0 16119-3 0 9990

TLE line 2: 2 64956 86.5024 3.5710 0001438 98.1034 262.0263 13.24423388 11320

Live tracking on map

Real-time ground track for satellite HULIANWANG DIGUI-35.

In-orbit conjunctions

There are no conjunctions computed for HULIANWANG DIGUI-35, at the moment. Check back to stay up to date, as we update our databases every day.

Go to all conjunctions

Associated space launch

A batch of 5 Low Earth Orbit communication satellites for the Chinese state owned SatNet constellation operated by the China Satellite Network Group. The constellation will eventually consists of 13000 satellites.

HULIANWANG DIGUI-35 was lifted into orbit during the mission ‘Long March 6A | SatNet LEO Group 05’, on board a Long March 6A space rocket.

The launch took place on July 27, 2025, 10:03 a.m. from Launch Complex 9A.

For more information about the launch, click the button.

Launch to space Long March 6A | SatNet LEO Group 05
Long March 6A | SatNet LEO Group 05

Agency: N/A

Status: Launch Successful

Launch date: July 27, 2025, 10:03 a.m. UTC

Rocket: Long March 6A

Launch pad: Launch Complex 9A

Location: Taiyuan Satellite Launch Center, People's Republic of China

...

Latest news about this satellite

There are no fresh news available about this satellite. Check back as we update our databases every day.


Newsletter sign-up

Weekly statistics, charts and insights to help you stay on top of the space industry.